CZ-4 DEB

基本信息
目录编号:
20884
目录名称:
CZ-4 DEB
国际标识:
1990-081AU
轨道中心:
EARTH
物体状态:
在轨
发射日期:
1990-09-03 UTC
轨道信息
数据来源: 国际轨道数据
星历时间: 2026-07-13T20:30:24+0800
半长轴: 7189.795km
偏心率: 0.0025892
轨道倾角: 98.491°
近地点辐角: 193.413°
升交点赤经: 199.746°
平近点角: 166.636°
近地点: 793.042km
远地点: 830.274km
周期: 101.119分钟
每日圈数: 14.240592
详细信息
发射场:
TSC
轨道高度:
LEO
数据来源:
AOE Integration Group
参考系:
TEME
时间系统:
UTC
历元类型:
SGP4
2D轨道图
3D轨道图
轨道高度分析图
轨道倾角分析图
轨道综合分析图
查看轨道综合分析图